Location: Anumalkud?ru
(16.4847°N, 80.6636°E)
Time: 10:57:53
(UTC+00:00)

SJ-12 - Pass Details

Date: 11 April 2026
Orbit: 512 x 521 km, 97.8° (Epoch: 21 May)

Event Time Altitude Azimuth Distance (km) Brightness Sun altitude
Rises 13:04:23 0° 175° (S) 2,613 7.1 -3.8°
Reaches altitude 10° 13:06:29 10° 179° (S) 1,730 6.3 -4.3°
Maximum altitude 13:10:09 60° 259° (WSW) 590 4.4 -5.1°
Drops below altitude 10° 13:13:51 10° 340° (NNW) 1,739 6.8 -6.0°
Sets 13:15:58 0° 344° (NNW) 2,628 7.7 -6.5°
